Regional Weather Roundup
Issued by NWS Charleston, SC

Current Version | Previous Version | Text Only | Print | Product List | Glossary Off
Versions: 1 2 3 4 5 6 7 8 9 10 11 12 13 14 15 16 17 18 19 20 21 22 23 24 25 26 27 28 29 30 31 32 33 34 35 36 37 38 39 40 41 42 43 44 45 46 47 48 49 50

000
ASUS42 KCHS 281925
RWRCHS

REGIONAL WEATHER ROUNDUP
NATIONAL WEATHER SERVICE CHARLESTON SC
200 PM EST FRI NOV 28 2014

NOTE: "FAIR" INDICATES FEW OR NO CLOUDS BELOW 12,000 FEET WITH NO
SIGNIFICANT WEATHER AND/OR OBSTRUCTIONS TO VISIBILITY.

NOT ALL STATIONS ARE QUALITY CONTROLLED BY THE NATIONAL
WEATHER SERVICE. USE DATA WITH CAUTION...ESPECIALLY
DEWPOINT OBSERVATIONS.

SCZ027-030-031-034>040-042>050-282000-
...SOUTHEAST SOUTH CAROLINA...

CITY           SKY/WX    TMP DP  RH WIND       PRES   REMARKS
N CHARLESTON   SUNNY     50  21  32 N8        30.32F
WATERFRONT PRK   N/A     48 N/A N/A N6G12       N/A
MOUNT PLEASANT FAIR      48  25  40 CALM      30.31F
JOHNS ISLAND   CLEAR     50  28  43 N9        30.32F
PINOPOLIS        N/A     48  21  34 MISG      30.26F
MONCKS CORNER  FAIR      48  28  46 N5        30.32F
SUMMERVILLE    FAIR      50  27  40 CALM      30.32F
BEAUFORT MCAS  SUNNY     49  27  42 CALM      30.33F
BEAUFORT ARPT  FAIR      48  30  49 E3        30.32F
HILTON HEAD IS SUNNY     48  30  49 N6        30.35F
WALTERBORO     CLEAR     50  18  27 NE3       30.32F
ALLENDALE      FAIR      48  23  37 VRB5      30.31F

...SOUTHERN MIDLANDS AND PEE DEE...

CITY           SKY/WX    TMP DP  RH WIND       PRES   REMARKS
GEORGETOWN     NOT AVBL
KINGSTREE      NOT AVBL
ORANGEBURG     SUNNY     46  20  35 CALM      30.32F
BARNWELL       FAIR      50  25  37 N3        30.32F
AIKEN          FAIR      46  23  39 NE3       30.33F
MANNING        NOT AVBL
COLUMBIA       SUNNY     47  18  31 SW7       30.32F
SUMTER         SUNNY     47  20  34 VRB5      30.31F
FLORENCE       SUNNY     46  19  34 SW6       30.32F
MYRTLE BEACH   SUNNY     46  19  34 N8        30.32F
N MYRTLE BEACH SUNNY     48  22  35 N8        30.30F

$$

GAZ063-065-086>088-099>101-113>116-118-119-134>141-150-282000-
...SOUTHEAST GEORGIA...

CITY           SKY/WX    TMP DP  RH WIND       PRES   REMARKS
SAVANNAH ARPT  SUNNY     52  25  35 N5        30.33F
HUNTER AAF     SUNNY     50  27  40 VRB1      30.31F
FORT STEWART   SUNNY     50  26  38 NE5       30.31F
STATESBORO     NOT AVBL
SYLVANIA       CLEAR     50  27  39 W3        30.32F
CLAXTON        NOT AVBL

...CSRA...CENTRAL AND FAR SOUTHEAST GEORGIA...

CITY           SKY/WX    TMP DP  RH WIND       PRES   REMARKS
THOMSON        SUNNY     49  31  50 CALM      30.36F
AUGUSTA-BUSH   SUNNY     49  20  31 NE3       30.33F
AUGUSTA-DANIEL SUNNY     48  22  35 VRB5      30.32F
SWAINSBORO     FAIR      52  30  43 CALM      30.32F
VIDALIA        SUNNY     50  30  46 CALM      30.31F
HAZLEHURST     FAIR      52  29  41 CALM      30.31F
ALMA           SUNNY     51  27  39 CALM      30.32F
WAYCROSS       SUNNY     54  32  42 CALM      30.32F
JESUP          FAIR      54  32  43 CALM      30.32F
BAXLEY         FAIR      52  28  40 CALM      30.32F
BRUNSWICK      SUNNY     52  30  43 NE7       30.33F
SAINT SIMONS   SUNNY     50  31  48 E8        30.33F

$$

SCZ027-028-034-036>038-045-046-048>050-GAZ119-141-282000-
...LAKE AND SUPPLEMENTAL COASTAL OBSERVATIONS...

STATION/POSITION TIME  TEMP    WIND        PRES    WAVE   SWELL
                       AIR SEA DIR/SP/G            HT/PER HT/PER/DIR
                 (UTC) (F)     (DEG/KT/KT) (MB)    (FT/S) (FT/S/D)
UPR LAKE MARION  NOT AVBL
WINYAH BAY       1900   46     350/  4     1026.0S
LAKE MURRAY      1800   43     180/  7/ 10 1026.8F
ACE BASIN NERRS  1900   50      10/  2     1027.0S
FORT PULASKI     1900   46      50/  4/  6 1027.3F
SAPELO ISLAND    1900   51     350/  4     1027.0F

$$

ANZ835-935-AMZ111-154-330-350-352-354-370-450-454-472-282000-
...C-MAN AND BUOY OBSERVATIONS...

STATION/POSITION TIME  TEMP    WIND        PRES    WAVE   SWELL
                       AIR SEA DIR/SP/G            HT/PER HT/PER/DIR
                 (UTC) (F)     (DEG/KT/KT) (MB)    (FT/S) (FT/S/D)
BUOY 41004       1900   47 72   20/ 12/ 17 1025.9F   5/ 6   3/ 6
BUOY 41008       1900   47 63   20/ 12/ 16 1027.1F   4/ 6   3/ 60/ 6
FOLLY BEACH CMAN 1900   47      10/  4/  5 1027.2F
CAPERS NEARSHORE 1800   46      40/  6/ 10   N/A
FRIPP NEARSHORE  NOT AVBL


STATION/POSITION TIME  TEMP    WIND        PRES    WAVE   SWELL
                       AIR SEA DIR/SP/G            HT/PER HT/PER/DIR
                 (UTC) (F)     (DEG/KT/KT) (MB)    (FT/S) (FT/S/D)
5E ST. MARYS GA  1900      61                N/A     4/ 6   2/110/14
FRYING PAN BUOY  1900   44 68  360/ 12/ 16 1026.4F   5/ 6   3/ 40/ 6
BUOY 41025       1900   45     330/ 19/ 23 1023.9    5/ 8   2/ 50/ 8
CAPE LOOKOUT NC  1900   43     340/ 10/ 13 1025.1F
BUOY 41002       1839   58 72  330/ 17/ 25 1021.5F  10/ 8
BUOY 41010       1900   65 77  360/ 16/ 19 1021.8F   7/ 8   5/360/ 8
ST AUGUSTINE FL  1900   51     360/ 15/ 17 1026.6F


$$


USA.gov is the U.S. government's official web portal to all federal, state and local government web resources and services.